Temperature
19 19 19 18 18 18 18 18 18 17 17 17 17 17 17 17 16 16 16 16 16 16 16 16 16 16 16 16 16 16 16 16 16 16 16 16 16 16 16 16 16 16 16
19 19 19 18 18 18 17 17 17 17 17 17 17 17 16 16 16 16 16 16 15 15 15 15 15 15 15 15 15 15 15 16 16 16 16 16 16 16 16 16 16 16 16
19 19 18 18 18 17 17 17 17 17 17 17 16 16 16 16 16 16 16 15 15 15 15 15 15 15 15 15 15 15 15 15 15 15 15 16 16 16 16 16 16 16 16
19 19 18 18 18 17 17 17 17 16 16 16 16 16 16 16 16 16 15 15 15 15 15 15 15 14 14 14 14 14 14 14 15 15 15 15 15 15 15 15 15 15 15
19 19 18 18 18 17 17 17 17 16 16 16 16 15 15 15 15 15 15 15 15 14 14 14 14 14 14 14 14 14 14 14 14 14 14 14 15 15 15 15 15 15 15
19 18 18 18 17 17 17 17 16 16 16 16 15 15 15 15 15 15 15 15 14 14 14 14 14 14 14 14 14 14 14 14 14 14 14 14 14 14 14 14 14 14 14
18 18 18 17 17 17 16 16 16 16 16 15 15 15 15 15 15 15 15 14 14 14 14 14 14 14 14 14 14 14 14 13 13 13 14 14 14 14 14 14 14 14 14
18 17 17 17 16 16 16 16 16 16 15 15 15 15 15 15 14 14 14 14 14 14 14 14 13 13 13 13 13 13 13 13 13 13 13 14 14 14 14 14 14 14 14
17 17 16 16 16 16 16 16 16 15 15 15 15 15 14 14 14 14 14 14 14 14 14 13 13 13 13 13 13 13 13 13 13 13 13 14 14 14 13 13 13 13 13
17 16 16 16 15 15 15 15 15 15 15 15 15 15 14 14 14 14 14 14 13 13 13 13 13 13 13 13 13 13 13 13 13 13 13 13 13 13 13 13 13 13 13
16 16 16 15 15 15 15 15 15 15 15 14 14 14 14 14 14 14 14 13 13 13 13 13 13 13 13 13 13 12 12 12 12 12 13 13 13 13 13 13 13 13 13
15 15 15 15 15 15 15 15 15 14 14 14 14 14 14 14 14 14 13 13 13 13 12 12 12 12 13 13 12 13 12 12 12 12 12 12 12 13 13 13 13 13 12
15 15 15 14 14 14 14 14 14 14 14 14 14 14 14 14 13 13 13 13 13 12 12 12 12 12 12 12 12 12 12 12 12 12 12 12 12 12 12 12 12 12 12
15 15 14 14 14 14 14 14 14 14 14 14 13 13 13 13 13 13 13 13 12 12 12 12 12 12 12 12 12 12 12 12 12 11 12 12 12 12 12 12 12 12 12
14 14 14 14 14 14 14 14 14 14 14 14 13 13 13 13 13 12 12 12 12 12 12 12 12 12 12 12 11 11 11 11 11 11 11 11 11 11 11 11 11 11 11
14 14 14 14 14 14 14 14 14 14 14 14 13 13 13 13 12 12 12 12 12 12 12 11 11 11 11 11 11 11 11 11 11 11 11 11 11 11 11 11 11 11 11
14 14 14 14 14 14 14 14 14 14 14 13 13 13 13 12 12 12 12 12 12 11 11 11 11 11 11 11 11 11 11 11 10 10 10 10 10 10 11 11 11 10 10
14 14 14 14 14 14 14 14 14 13 13 13 13 13 12 12 12 12 12 11 11 11 11 11 11 11 11 10 10 10 10 10 10 10 10 10 10 10 10 10 10 10 10
14 13 13 14 14 13 13 13 13 13 13 13 13 12 12 12 12 12 11 11 11 11 11 10 10 10 10 10 10 10 10 10 10 9 9 9 9 9 9 10 10 9 9
13 13 13 13 13 13 13 13 13 13 13 12 12 12 12 11 11 11 11 11 11 10 10 10 10 10 10 10 9 9 9 9 9 9 9 9 9 9 9 9 9 9 9
13 13 13 13 13 13 13 13 13 12 12 12 12 12 11 11 11 11 11 10 10 10 10 9 9 9 9 9 9 9 9 9 9 8 9 8 8 9 9 9 9 9 9
13 13 13 13 13 12 12 12 12 12 12 12 11 11 11 11 10 10 10 10 10 9 9 9 9 9 9 9 8 8 8 8 8 8 8 8 8 8 8 8 8 8 8
13 13 13 13 13 12 12 12 12 12 12 12 11 11 11 10 10 10 10 10 9 9 9 9 9 8 8 8 8 8 8 8 8 8 8 8 8 8 8 8 8 8 8
13 13 13 13 13 12 12 12 12 12 12 11 11 11 10 10 10 10 9 9 9 9 9 8 8 8 8 8 8 8 7 8 8 8 8 7 7 7 7 7 7 7 7
13 13 13 12 12 12 12 12 12 11 11 11 11 10 10 10 10 9 9 9 9 9 8 8 8 8 8 8 8 8 7 7 7 7 7 7 7 7 7 7 7 7 7
12 12 12 12 12 12 11 11 11 11 11 11 10 10 10 9 9 9 9 9 8 8 8 8 8 8 8 8 7 7 7 7 7 7 7 7 7 7 6 6 7 7 7
Wind_Speed
5 5 3 3 3 2 1 0 0 1 1 1 2 2 1 2 2 2 3 2 2 3 3 3 3 4 4 4 4 3 3 3 4 4 3 2 2 2 1 4 4 6 8
5 4 3 2 2 2 1 1 0 0 1 1 1 2 2 2 2 3 4 4 3 3 3 3 4 4 4 4 4 4 4 4 4 5 4 3 3 3 3 3 4 5 6
4 4 3 2 1 1 1 0 0 0 0 1 1 1 2 2 3 3 3 3 3 3 3 2 3 4 4 4 5 5 5 5 4 4 5 4 3 3 2 4 5 4 5
3 3 3 2 2 2 1 1 0 0 0 1 1 1 2 2 3 4 4 4 3 4 3 2 2 2 3 4 4 4 5 5 5 5 5 4 3 3 2 3 4 3 4
3 2 2 1 1 1 0 0 0 1 1 0 1 1 2 1 3 4 5 4 4 4 4 3 3 2 3 3 4 4 5 4 5 5 5 5 4 3 2 3 4 3 4
2 2 2 1 1 1 0 0 0 0 1 1 1 1 2 3 4 5 5 5 4 4 4 4 5 2 4 5 6 6 5 5 5 5 5 5 5 4 3 4 4 4 4
3 3 2 1 1 1 1 0 0 1 1 1 1 1 1 2 4 5 6 5 5 5 4 4 5 5 4 4 6 7 7 8 7 6 7 7 6 5 4 4 4 5 6
3 3 3 3 3 2 2 2 1 1 2 2 2 2 1 2 3 5 6 5 5 4 4 4 4 4 6 5 6 6 6 6 7 6 6 7 7 5 5 5 5 6 6
3 3 2 2 2 3 3 2 2 2 2 2 2 2 2 2 3 4 5 5 4 4 4 3 4 4 6 6 5 6 7 6 7 8 7 8 8 8 6 4 4 4 5
2 2 2 1 1 1 1 2 2 2 3 3 2 2 2 2 2 3 4 4 5 5 3 3 3 3 5 5 5 6 7 7 8 8 6 6 6 6 6 5 4 4 4
1 1 1 1 1 1 1 2 2 3 3 3 3 2 2 1 2 2 2 3 5 5 4 3 3 3 5 6 6 6 8 8 7 7 6 4 3 3 3 3 3 3 4
1 1 1 1 2 1 1 2 3 3 4 3 3 3 2 1 1 1 2 3 5 4 5 4 4 6 7 7 7 9 10 8 5 5 4 3 3 2 2 2 3 4 4
1 1 1 2 1 1 2 3 3 3 3 3 3 3 2 1 1 1 2 4 5 4 4 6 7 9 8 7 8 9 7 4 4 4 4 3 3 3 3 2 3 3 3
1 2 2 2 2 2 2 2 2 3 3 3 3 4 4 3 3 3 3 4 5 5 5 7 9 9 8 7 6 5 4 3 4 4 4 3 3 3 3 2 2 2 2
2 3 3 3 2 1 1 2 1 1 1 1 2 2 3 3 3 4 3 4 4 5 5 5 5 4 4 3 3 3 3 2 3 4 4 4 4 3 3 2 2 1 1
3 4 3 3 2 2 1 1 2 1 2 3 3 2 1 2 4 5 6 7 8 7 4 4 5 4 4 4 4 4 3 3 3 4 3 3 4 4 3 3 2 2 2
3 4 3 3 2 3 2 1 2 2 3 4 4 3 3 5 7 7 8 8 9 6 3 4 4 4 4 4 4 4 3 3 3 4 3 4 4 3 3 2 2 3 2
3 3 4 3 2 2 2 2 2 2 2 2 4 6 6 7 8 9 7 5 5 2 2 3 4 4 4 4 4 4 4 3 3 3 3 4 3 3 3 3 2 3 3
3 3 4 3 2 2 2 3 2 2 3 2 1 2 6 6 7 7 4 3 5 4 4 4 4 4 5 4 4 4 4 3 3 3 3 4 4 3 3 3 3 3 3
2 4 4 3 3 2 2 2 3 3 2 3 2 2 2 2 3 2 2 2 3 4 4 4 4 4 4 4 4 4 4 4 4 3 3 3 3 4 4 4 3 3 3
2 2 3 4 3 2 3 3 3 3 3 3 2 1 2 3 3 3 3 2 3 4 4 4 4 4 4 4 4 4 5 4 4 4 4 4 4 4 4 3 3 2 3
3 2 1 2 2 2 3 3 3 3 3 3 2 1 2 4 4 5 4 4 3 3 3 4 4 4 4 4 4 5 5 5 5 4 5 5 4 4 4 3 3 2 2
3 2 1 1 1 1 2 3 3 3 2 2 2 2 2 3 4 4 4 4 4 4 4 4 4 4 4 4 4 4 4 5 5 5 5 5 4 4 4 4 3 2 2
3 2 1 1 2 2 2 2 2 3 3 2 3 3 3 3 4 4 4 4 3 3 3 3 3 4 5 4 4 5 5 5 5 5 5 5 5 4 4 3 3 2 2
3 2 2 1 2 3 3 3 3 3 3 3 3 3 3 3 4 4 4 4 4 3 3 3 3 4 5 6 6 6 7 7 6 6 5 4 4 4 4 3 2 2 2
3 3 3 2 2 2 2 3 3 3 3 3 3 4 4 4 4 4 4 5 5 4 3 3 4 4 5 5 6 7 6 6 7 7 5 3 3 3 3 3 3 2 2
Wind_Direction
177 176 183 177 194 199 214 242 138 347 353 5 351 334 336 343 342 329 324 330 328 325 325 338 329 314 328 324 321 319 310 300 290 292 287 289 264 266 232 225 219 216 213
172 169 179 173 177 185 196 243 140 36 337 358 341 331 324 348 341 327 320 326 321 320 319 329 327 321 328 321 319 311 304 294 286 292 294 286 278 260 230 244 256 244 223
165 157 152 159 169 213 235 232 174 216 314 342 320 329 334 339 328 320 313 306 306 309 315 320 322 323 326 321 314 312 306 304 295 290 289 278 276 276 262 257 262 262 244
139 150 145 162 180 208 227 231 212 254 248 288 313 331 328 344 340 331 319 306 304 303 302 300 299 307 309 308 305 309 307 307 303 296 289 288 284 289 284 277 277 271 273
110 114 117 146 168 184 162 177 114 284 275 298 318 312 309 314 335 334 315 307 309 305 307 306 293 283 306 303 305 311 305 301 300 295 293 298 297 298 283 278 277 276 267
100 94 89 82 82 70 82 63 86 283 307 311 262 273 308 322 345 348 329 314 306 299 299 300 287 282 293 288 297 297 291 287 292 291 290 287 286 288 284 280 286 286 277
80 77 73 73 68 55 351 42 317 286 292 290 287 276 293 331 327 330 322 302 295 298 303 304 302 314 319 307 288 279 281 280 274 275 281 284 286 289 289 287 290 294 280
79 69 51 36 36 38 29 26 5 321 300 282 273 281 296 318 324 321 313 287 289 293 299 298 303 310 317 319 303 295 285 281 272 266 269 277 283 287 278 273 272 275 273
80 70 53 36 28 29 21 359 337 310 300 290 275 269 277 305 317 319 315 292 295 297 293 303 308 304 310 313 302 299 297 290 286 281 268 266 273 285 285 287 286 286 285
62 46 29 17 17 13 354 319 317 305 289 288 289 283 276 277 267 298 305 299 301 301 297 290 306 315 317 322 304 298 298 300 302 300 289 273 268 270 267 256 267 279 288
53 5 18 352 314 321 314 305 306 303 297 288 272 266 252 251 249 258 288 306 309 309 308 305 309 317 316 313 301 291 288 293 294 291 284 270 259 258 258 255 261 265 275
12 0 357 294 289 309 312 300 295 288 281 276 272 269 259 249 250 242 241 265 291 304 306 308 314 315 301 291 286 285 291 295 290 290 288 289 287 280 271 265 261 252 255
345 313 298 300 319 302 271 274 276 280 293 305 311 313 320 4 33 348 274 277 287 287 305 315 309 297 289 282 273 277 286 292 288 289 296 296 288 275 264 257 257 245 251
302 283 272 261 261 277 289 301 328 339 337 338 339 336 338 0 17 3 332 309 305 304 310 307 293 287 284 286 291 283 269 275 285 289 293 296 299 298 301 285 271 253 265
297 277 266 259 258 277 313 331 5 5 336 304 339 335 340 347 344 327 316 315 315 315 315 299 296 301 302 297 296 297 300 300 293 295 298 306 309 312 310 299 283 276 273
282 270 259 255 245 235 210 302 340 267 202 186 203 233 283 285 301 306 302 298 297 300 305 295 298 307 312 314 312 309 309 311 308 299 295 300 302 299 305 317 312 297 289
284 286 279 272 267 270 241 234 256 285 273 248 244 249 256 276 286 287 291 300 297 287 275 286 300 310 313 317 318 315 310 307 300 301 301 296 293 298 303 311 313 309 307
292 298 298 286 283 290 298 293 286 282 273 276 252 240 249 257 266 276 294 323 313 293 297 312 317 317 320 324 322 316 315 320 320 316 317 318 317 308 307 306 301 299 298
299 299 300 291 283 284 285 293 301 311 316 332 359 260 256 263 270 276 287 296 310 333 337 333 332 332 330 326 322 321 319 318 320 322 324 326 324 314 306 303 304 292 282
311 314 309 294 285 289 297 309 311 316 326 333 336 358 342 326 322 312 282 296 320 330 336 334 333 335 336 333 333 330 331 333 330 326 322 320 320 316 312 310 302 290 282
283 285 279 284 296 313 312 306 305 311 320 326 345 36 328 316 312 320 325 327 324 323 325 324 327 335 337 331 335 335 332 335 340 335 330 322 314 308 301 297 299 297 296
287 273 259 291 315 322 313 304 308 321 327 333 340 340 279 310 330 333 334 339 336 325 326 328 326 334 337 338 340 339 335 334 336 332 325 322 320 312 308 302 299 304 308
279 284 290 310 301 272 284 302 311 313 320 334 329 328 324 328 329 332 335 332 334 333 340 340 334 341 348 350 356 349 339 335 330 324 321 318 316 316 317 317 319 322 326
288 291 292 311 322 307 294 305 317 318 321 327 331 334 341 340 327 329 334 334 332 331 332 331 337 344 348 356 359 354 356 350 339 328 321 316 314 310 313 315 320 328 333
298 305 310 315 315 313 314 319 328 327 332 346 355 353 351 341 330 332 338 335 330 331 335 338 349 353 353 356 360 359 359 355 347 339 326 311 308 312 317 318 320 324 334
308 306 306 308 302 315 320 325 327 333 337 352 0 355 342 336 337 341 350 351 337 332 338 345 351 1 1 359 0 360 1 355 347 337 320 306 302 311 319 313 311 309 303
Height
1508 1509 1509 1510 1510 1511 1511 1510 1510 1510 1509 1509 1508 1508 1507 1506 1506 1505 1504 1504 1503 1502 1502 1501 1501 1500 1500 1499 1499 1498 1497 1497 1495 1494 1493 1493 1492 1491 1490 1489 1488 1488 1487
1507 1508 1508 1509 1509 1509 1509 1509 1509 1508 1508 1507 1507 1506 1506 1505 1504 1503 1502 1502 1501 1500 1500 1499 1499 1498 1497 1497 1496 1495 1495 1494 1493 1491 1490 1489 1488 1488 1487 1486 1485 1484 1484
1506 1507 1507 1508 1508 1508 1508 1507 1507 1506 1506 1505 1505 1505 1504 1503 1503 1502 1501 1500 1499 1499 1498 1497 1496 1496 1495 1494 1493 1492 1492 1491 1490 1489 1487 1487 1485 1485 1483 1483 1483 1482 1481
1505 1506 1506 1506 1506 1506 1506 1506 1505 1505 1504 1504 1503 1503 1502 1502 1501 1500 1499 1498 1497 1497 1496 1495 1494 1493 1492 1491 1490 1490 1489 1488 1487 1486 1485 1483 1482 1481 1480 1479 1479 1479 1478
1504 1505 1505 1505 1505 1504 1504 1504 1503 1503 1503 1502 1502 1501 1501 1500 1499 1498 1497 1496 1495 1494 1494 1493 1492 1491 1490 1489 1488 1487 1486 1484 1484 1483 1482 1480 1479 1478 1478 1477 1476 1475 1475
1503 1503 1503 1503 1503 1503 1502 1502 1502 1501 1501 1501 1500 1500 1499 1498 1497 1496 1495 1494 1493 1492 1491 1490 1489 1488 1486 1485 1484 1483 1483 1482 1480 1479 1478 1477 1476 1476 1475 1474 1474 1472 1470
1501 1502 1502 1501 1501 1501 1501 1500 1500 1500 1499 1499 1498 1498 1497 1496 1495 1495 1493 1492 1490 1489 1488 1487 1486 1485 1483 1482 1481 1480 1479 1478 1477 1476 1474 1473 1472 1472 1472 1471 1470 1469 1468
1500 1500 1500 1500 1499 1499 1499 1499 1498 1498 1497 1497 1496 1495 1494 1493 1493 1492 1491 1489 1488 1487 1485 1484 1483 1481 1480 1479 1477 1475 1474 1473 1472 1471 1470 1469 1468 1468 1467 1467 1466 1465 1464
1499 1499 1499 1499 1498 1498 1497 1497 1497 1496 1495 1495 1494 1493 1492 1491 1490 1489 1488 1486 1485 1484 1482 1481 1480 1478 1477 1475 1473 1471 1470 1469 1468 1467 1466 1464 1464 1463 1463 1463 1462 1462 1460
1498 1498 1497 1497 1497 1496 1496 1495 1495 1494 1493 1492 1491 1490 1489 1488 1487 1486 1485 1484 1482 1481 1479 1478 1476 1474 1473 1472 1470 1468 1466 1465 1464 1462 1461 1460 1459 1459 1459 1459 1458 1458 1457
1496 1496 1496 1496 1495 1495 1494 1493 1493 1492 1491 1490 1489 1488 1487 1486 1485 1483 1482 1480 1479 1478 1476 1475 1473 1471 1469 1468 1466 1464 1462 1461 1460 1458 1457 1456 1456 1455 1455 1455 1454 1454 1454
1495 1495 1494 1494 1494 1494 1493 1492 1491 1490 1489 1488 1487 1486 1485 1483 1482 1480 1479 1478 1477 1475 1473 1472 1470 1468 1466 1464 1463 1461 1459 1458 1456 1455 1454 1453 1453 1452 1451 1451 1451 1450 1450
1493 1493 1493 1492 1492 1492 1491 1490 1489 1488 1487 1486 1485 1484 1483 1482 1480 1478 1476 1475 1474 1472 1470 1469 1467 1465 1463 1461 1459 1457 1456 1454 1453 1452 1451 1450 1450 1450 1449 1448 1447 1447 1446
1491 1491 1491 1490 1490 1490 1489 1488 1487 1486 1485 1484 1483 1482 1481 1480 1478 1476 1474 1472 1471 1469 1467 1466 1464 1462 1460 1458 1456 1454 1452 1451 1450 1449 1449 1448 1448 1447 1446 1445 1444 1444 1443
1489 1489 1489 1489 1488 1487 1487 1486 1485 1484 1484 1483 1481 1480 1478 1477 1475 1474 1472 1470 1468 1466 1464 1462 1461 1459 1457 1455 1453 1452 1450 1449 1447 1446 1445 1445 1445 1444 1444 1443 1442 1441 1440
1487 1487 1487 1487 1486 1485 1485 1484 1483 1482 1481 1480 1479 1478 1476 1474 1473 1471 1469 1467 1466 1464 1462 1460 1458 1457 1455 1453 1451 1449 1448 1446 1445 1444 1443 1442 1442 1441 1441 1440 1439 1438 1437
1485 1485 1485 1484 1484 1483 1482 1481 1480 1480 1479 1477 1476 1475 1473 1472 1470 1468 1466 1465 1463 1461 1460 1458 1456 1455 1453 1451 1449 1448 1446 1444 1443 1441 1440 1439 1439 1438 1437 1437 1436 1435 1435
1483 1483 1482 1482 1482 1481 1480 1479 1479 1477 1476 1475 1473 1472 1471 1469 1467 1466 1464 1462 1460 1459 1458 1456 1455 1453 1451 1449 1447 1445 1444 1442 1440 1439 1438 1437 1436 1435 1434 1434 1433 1432 1432
1481 1480 1480 1479 1479 1478 1478 1477 1476 1475 1474 1473 1471 1470 1468 1467 1465 1464 1462 1460 1459 1457 1456 1454 1453 1451 1448 1447 1445 1443 1441 1440 1438 1437 1435 1434 1433 1432 1432 1431 1430 1430 1429
1479 1478 1478 1477 1477 1476 1476 1475 1474 1473 1472 1471 1470 1468 1466 1465 1463 1462 1460 1459 1457 1456 1454 1452 1451 1449 1446 1445 1443 1441 1439 1437 1436 1434 1433 1432 1431 1430 1429 1428 1427 1427 1426
1478 1477 1476 1476 1475 1474 1474 1473 1472 1471 1470 1469 1468 1466 1465 1463 1462 1461 1459 1457 1455 1454 1452 1450 1449 1446 1444 1442 1440 1439 1437 1435 1433 1432 1430 1429 1428 1427 1426 1425 1424 1424 1423
1476 1475 1474 1474 1473 1472 1471 1471 1470 1469 1468 1467 1466 1465 1463 1462 1460 1459 1457 1456 1454 1452 1450 1448 1446 1444 1442 1440 1438 1436 1434 1432 1430 1428 1427 1426 1425 1424 1423 1422 1421 1420 1420
1474 1473 1472 1471 1471 1470 1470 1468 1468 1467 1466 1465 1464 1463 1461 1460 1458 1457 1455 1453 1451 1449 1447 1446 1444 1442 1439 1437 1435 1433 1431 1429 1427 1426 1424 1423 1421 1421 1420 1419 1418 1418 1417
1472 1472 1471 1470 1469 1468 1467 1467 1466 1465 1464 1463 1462 1461 1459 1458 1456 1455 1453 1451 1449 1447 1444 1443 1441 1440 1437 1435 1433 1431 1429 1427 1425 1423 1421 1420 1419 1418 1417 1416 1416 1415 1415
1470 1469 1468 1467 1467 1466 1465 1465 1464 1463 1462 1461 1460 1459 1457 1456 1454 1453 1451 1449 1447 1445 1443 1441 1439 1438 1436 1433 1431 1429 1427 1425 1423 1421 1419 1418 1416 1416 1415 1414 1414 1414 1414
1468 1467 1466 1466 1465 1464 1463 1462 1462 1461 1460 1459 1458 1457 1456 1454 1453 1451 1448 1447 1445 1443 1440 1439 1437 1435 1433 1431 1429 1427 1425 1423 1421 1419 1417 1416 1415 1414 1414 1413 1413 1413 1413